{"data":{"norad_id":43762,"intl_designator":"2018-099E","name":"STPSAT-5","alt_names":[],"object_type":"PAYLOAD","status":"ACTIVE","operator":null,"country":"US","launch_date":"2018-12-03","launch_site_code":"AFWTR","launch_vehicle":null,"mission":null,"orbit_class":"UNKNOWN","rcs_meters":null,"size_class":null,"mass_kg":null,"dimensions":null,"purposes":[],"wikipedia_slug":null,"has_3d_model":false,"image_url":null,"decayed_at":null,"tle_current":{"epoch":"2026-05-25T02:10:18.381792Z","epoch_age_seconds":74208,"freshness":"FRESH","line1":"1 43762U 18099E   26145.09049053  .00004549  00000+0  25793-3 0  9997","line2":"2 43762  97.4102 195.5058 0004530  70.7745 289.3977 15.13458326409378","mean_motion":15.13458326,"eccentricity":0.000453,"inclination_deg":97.4102,"raan_deg":195.5058,"arg_perigee_deg":70.7745,"mean_anomaly_deg":289.3977,"bstar":0.00025793,"rev_number":40937,"period_min":95.14632648035,"perigee_km":522.53550161684,"apogee_km":528.79034434707,"semimajor_km":6903.799922982,"source":"CELESTRAK","updated_at":"2026-05-25T13:37:55.892590Z"}}}